Theta_e
313 312 313 320 320 317 314 318 324 327 325 323 321 321 322 324 325 326 327 330 332 334 331 315 314 314 315 317 317 317 314 316 316 315 317 317 316 319 320 329 328 327 326 325 334
313 314 313 315 320 317 315 320 321 326 324 324 322 322 324 325 325 326 328 329 332 330 318 315 315 314 315 316 316 315 313 315 315 314 314 316 317 318 320 325 329 328 329 329 335
313 314 313 313 316 318 316 320 326 322 325 325 324 324 325 326 319 325 328 329 330 331 323 314 316 321 325 322 316 315 314 314 315 316 316 317 316 318 320 319 326 326 330 332 334
310 312 313 313 313 319 316 320 322 326 326 326 325 324 326 326 325 323 329 329 328 314 314 314 316 321 315 318 319 315 315 314 315 316 316 314 317 318 320 320 320 322 322 330 334
310 312 312 312 315 319 317 318 322 323 325 326 325 325 324 319 321 312 325 325 326 315 312 314 319 318 317 315 314 313 314 314 314 315 316 316 314 316 318 317 319 324 327 328 334
309 309 312 313 313 319 317 316 322 323 324 325 324 325 325 313 317 311 317 319 325 321 313 314 316 317 317 315 317 313 313 313 314 314 314 313 313 315 317 316 320 325 327 328 332
309 308 309 311 312 319 317 315 320 323 323 323 322 322 321 319 319 310 314 320 319 317 315 313 315 317 318 318 316 317 313 312 313 314 313 314 314 313 316 316 322 327 327 328 330
308 308 307 313 311 313 318 315 317 321 323 321 313 310 310 315 310 310 311 317 316 317 314 312 314 314 314 313 311 311 310 312 311 313 312 313 313 313 315 317 325 330 329 329 329
306 307 308 310 314 313 317 316 316 320 322 316 311 310 311 314 312 310 311 314 313 310 310 310 313 313 311 309 311 309 311 311 312 311 311 313 313 313 314 320 325 329 328 329 330
304 306 307 310 314 313 317 315 316 319 319 314 311 312 312 313 313 310 310 312 312 309 310 311 312 308 305 308 317 311 311 311 311 311 310 312 311 310 312 317 321 324 327 329 328
305 304 306 311 313 312 317 317 316 312 312 312 312 314 315 312 311 310 310 310 310 311 308 310 308 308 307 307 308 309 310 312 310 310 310 310 311 309 309 310 315 320 324 325 323
303 304 305 308 313 311 316 316 315 313 313 313 313 312 311 312 310 310 310 310 309 307 307 308 309 308 308 308 308 309 309 309 310 310 310 310 309 307 308 309 312 314 318 322 322
303 304 305 308 311 314 316 315 314 314 313 311 312 312 312 310 310 311 310 310 307 307 307 308 309 308 308 309 309 309 309 308 310 309 309 310 309 309 308 309 311 311 312 313 315
303 304 305 306 308 314 317 315 314 315 311 311 312 312 314 314 315 310 310 310 307 307 306 308 308 308 308 309 308 308 308 309 308 309 310 307 309 306 306 307 307 311 311 313 313
302 304 305 306 310 313 316 314 313 314 317 311 310 310 314 317 315 313 310 310 307 306 306 307 307 307 309 308 307 308 307 308 308 307 308 307 306 306 305 305 305 309 313 313 313
303 304 305 306 309 316 315 313 311 310 312 310 310 309 311 310 314 314 311 310 309 307 307 306 307 307 308 307 307 306 306 305 304 305 308 306 306 306 304 306 306 307 311 314 314
302 304 308 306 309 315 314 310 309 313 309 309 309 309 312 309 310 312 311 311 309 307 307 307 307 306 308 308 307 308 306 307 308 307 309 304 305 308 306 304 305 306 309 310 311
301 305 310 306 308 314 310 309 312 309 308 307 308 309 310 308 309 314 312 312 311 306 306 307 309 306 306 307 306 305 307 307 309 308 307 305 307 307 305 309 308 308 309 310 311
302 306 310 306 309 313 309 311 309 308 307 309 308 309 307 309 308 310 313 314 312 307 307 306 307 307 307 306 308 306 307 306 307 297 305 305 304 305 306 304 306 309 309 309 310
303 308 310 306 313 310 309 312 306 306 307 308 309 308 309 309 308 310 310 312 312 309 308 305 308 307 307 308 308 307 307 309 305 307 308 306 306 306 307 307 305 305 308 310 310
303 309 309 307 309 309 310 310 306 307 308 308 307 308 308 309 308 309 309 308 311 307 305 305 307 307 307 307 307 307 306 306 306 307 308 305 305 303 308 307 305 306 309 310 311
303 309 311 311 307 304 309 307 306 307 308 306 306 306 307 308 307 308 308 307 310 306 308 308 307 307 307 307 306 307 307 308 310 308 305 307 306 305 303 303 307 307 309 311 311
303 305 312 310 308 306 309 308 307 308 308 307 306 306 307 308 308 308 307 307 308 307 309 308 308 308 308 308 308 308 306 306 304 305 306 307 307 303 305 307 307 307 309 309 310
300 305 305 311 307 307 309 309 307 308 307 307 305 306 307 307 306 307 307 307 308 308 309 309 308 309 310 309 308 308 307 305 307 306 305 306 307 307 306 307 308 309 309 309 310
299 302 301 310 304 308 309 309 308 308 307 307 307 307 307 307 307 307 307 307 307 308 309 309 309 306 306 307 308 308 308 307 308 309 309 310 306 306 304 304 307 310 309 310 310
299 299 300 306 307 307 310 309 308 307 307 308 307 306 307 306 307 307 306 307 307 307 307 305 302 304 301 306 306 307 308 307 308 309 308 306 305 305 307 307 308 309 309 310 310
298 299 301 305 307 309 309 309 309 308 308 308 306 305 306 305 307 308 309 308 306 307 306 306 302 304 299 302 304 306 307 308 308 308 308 307 308 303 303 304 307 309 310 310 310
Wind_Speed
26 36 37 31 31 28 29 30 29 33 35 35 33 34 30 25 24 25 27 26 25 21 14 13 11 10 9 5 4 5 4 2 6 7 4 12 5 11 8 20 10 12 7 9 28
22 28 36 34 32 29 28 32 32 33 23 25 35 29 25 23 22 27 30 23 23 18 22 22 18 14 6 4 3 4 4 8 6 4 6 17 13 15 9 13 6 13 11 18 30
18 23 35 41 26 32 28 36 28 34 25 30 30 27 27 23 16 27 28 21 22 24 20 16 13 15 6 4 2 2 4 4 4 8 12 21 11 13 16 4 12 22 21 32 34
22 24 26 26 35 34 30 37 33 27 27 28 29 32 30 23 10 9 24 25 24 21 21 21 18 11 7 5 6 2 5 4 6 3 16 13 16 10 20 8 17 20 21 36 37
20 23 24 36 26 36 32 39 34 29 25 33 34 33 28 16 14 3 23 27 29 25 22 24 24 14 6 8 9 4 2 5 6 5 13 18 7 7 15 7 13 21 29 35 38
19 26 23 24 23 36 33 37 35 31 28 27 26 32 24 8 12 5 23 31 32 32 22 25 19 7 9 3 3 1 2 5 4 2 6 7 4 10 18 9 17 26 31 34 37
21 20 26 27 32 31 34 34 35 30 29 29 28 27 23 15 16 7 23 31 29 29 27 24 8 16 9 6 8 10 4 3 0 2 2 5 2 7 14 15 23 28 30 32 35
23 23 28 26 27 23 33 33 35 32 34 31 28 26 10 28 14 12 21 31 24 24 21 20 15 12 7 8 7 7 4 5 2 5 0 4 9 5 14 22 26 30 32 32 33
23 22 28 24 29 26 35 32 33 31 35 37 36 23 11 30 17 12 21 33 26 24 19 20 15 7 6 7 3 3 4 4 1 4 3 3 7 4 16 20 27 31 32 33 32
22 22 27 28 29 25 36 33 32 35 36 35 25 10 10 25 24 15 19 28 27 21 13 14 6 4 3 4 11 6 4 2 5 5 3 4 8 4 14 21 28 30 31 32 32
21 20 24 36 30 24 38 43 37 12 28 13 29 5 18 23 22 15 21 25 22 20 6 7 5 7 7 6 7 6 5 4 2 1 3 8 8 8 5 17 20 28 30 31 31
21 18 22 35 27 29 46 42 41 23 10 12 23 6 29 32 11 16 20 13 11 5 6 4 7 7 8 6 5 5 6 6 1 0 3 1 9 7 7 13 29 31 30 33 31
22 23 21 33 30 38 47 43 42 28 8 4 16 13 24 25 14 21 25 11 7 6 5 7 6 9 8 6 6 3 6 5 3 2 2 2 7 4 7 19 21 27 29 30 32
23 22 24 29 27 40 47 43 38 32 4 4 5 11 18 18 5 20 24 11 4 10 7 5 3 10 5 7 7 5 5 6 6 5 4 1 5 5 6 9 8 27 29 33 35
22 24 24 34 22 43 46 46 36 26 14 12 8 18 23 19 21 12 18 3 8 6 6 7 8 7 5 7 6 8 6 7 4 3 3 2 1 7 2 6 8 25 39 36 33
23 24 26 38 39 39 55 45 34 5 5 8 10 11 13 8 13 28 11 6 3 5 3 6 3 8 12 4 9 7 7 6 5 3 4 7 7 5 6 8 6 20 35 46 45
21 22 27 39 44 49 52 40 6 10 12 8 12 17 22 8 8 24 16 14 7 7 6 2 1 3 3 6 4 3 7 1 1 2 6 1 4 7 5 8 9 10 18 23 32
20 21 28 42 38 63 51 11 8 11 15 4 11 19 13 8 5 21 24 18 14 3 5 6 5 8 3 6 8 6 8 5 7 4 4 1 7 6 10 23 18 16 15 10 14
19 24 31 47 39 65 44 13 13 25 13 16 12 22 4 8 8 12 20 28 23 18 9 6 5 1 1 3 12 7 7 6 7 2 3 5 6 9 6 10 17 22 24 23 13
16 17 40 49 44 63 20 19 5 13 17 21 14 18 19 24 9 20 20 20 19 27 15 8 5 3 2 2 0 8 9 3 3 4 4 5 6 5 6 14 7 7 17 18 16
15 8 36 45 56 40 21 10 3 23 29 18 9 14 15 22 16 23 28 6 29 20 3 7 5 3 5 7 8 3 5 3 5 5 5 1 6 9 15 12 10 12 17 14 15
9 7 34 62 12 10 17 8 9 20 26 4 7 5 23 24 9 20 16 9 40 16 10 3 6 4 6 1 3 2 8 8 7 5 1 3 6 2 7 7 9 8 18 16 15
5 5 32 52 6 14 12 4 6 23 24 8 6 4 15 18 8 13 12 17 32 17 16 9 0 4 4 4 2 7 4 6 6 4 7 4 6 2 7 5 5 9 10 16 18
4 4 9 39 19 19 15 13 6 24 11 4 7 9 16 12 3 14 9 10 30 22 18 14 3 7 13 25 8 6 8 6 7 3 4 11 3 6 6 6 1 5 8 13 17
6 3 2 12 9 18 18 18 13 11 5 9 3 19 16 14 12 8 6 5 13 16 8 8 7 4 2 2 9 4 9 14 17 24 13 27 14 13 9 8 8 5 9 11 15
4 4 4 7 25 21 21 18 20 10 12 21 14 22 15 11 20 6 7 2 8 3 8 2 3 3 3 3 5 6 9 12 17 27 22 8 9 4 17 6 10 14 12 13 14
5 6 4 9 17 21 21 25 28 21 1 21 17 8 8 8 18 21 16 20 16 13 7 5 6 4 3 2 6 3 21 22 22 21 19 15 12 7 8 11 18 19 19 20 17
Wind_Direction
234 232 238 234 225 228 226 220 226 213 204 194 193 192 198 199 204 210 211 213 211 203 200 199 183 174 164 136 123 124 73 218 196 161 212 163 147 165 154 147 162 185 177 201 170
242 232 237 246 223 223 225 213 221 207 214 210 204 195 195 199 208 216 212 214 205 196 193 193 182 160 141 107 138 122 132 212 197 210 192 174 177 162 153 154 167 180 175 175 173
247 237 236 237 240 221 219 209 213 217 215 206 205 199 202 194 209 226 206 204 202 201 204 195 207 215 193 175 76 161 190 220 248 227 198 172 180 175 145 232 191 179 173 174 175
241 244 228 233 237 216 212 206 210 208 214 211 207 200 213 207 192 224 211 207 190 180 189 188 188 161 144 167 172 250 259 260 305 268 173 169 167 168 173 198 208 195 194 179 182
242 238 236 236 235 211 208 204 207 209 211 213 199 204 214 183 222 184 190 195 185 179 190 185 183 171 153 159 153 170 279 290 315 295 196 161 188 189 187 198 186 183 180 186 188
251 242 241 228 248 205 205 203 205 205 208 206 203 199 202 180 223 192 181 177 185 185 185 187 190 158 131 141 145 80 244 289 344 75 161 152 167 169 196 195 178 181 183 191 194
249 241 246 228 243 200 203 202 204 198 206 199 191 186 191 198 209 190 182 181 182 184 187 190 196 188 169 138 171 166 247 300 149 357 57 112 6 223 194 186 179 184 190 194 200
248 232 241 217 225 238 200 197 202 196 197 187 172 171 188 196 193 183 181 185 184 188 192 189 185 185 184 147 122 147 145 177 247 141 0 115 245 266 193 186 188 190 194 200 205
241 238 232 233 215 230 192 191 196 199 188 175 171 175 199 196 212 170 182 180 178 184 189 184 184 180 154 129 103 45 170 179 195 185 138 150 258 226 198 197 193 197 200 206 211
239 241 222 232 205 224 183 185 188 189 177 169 170 163 214 190 188 185 177 182 178 176 166 176 169 118 56 162 196 161 135 190 175 211 146 179 258 286 204 201 207 205 209 211 215
238 235 229 219 197 215 187 168 160 145 156 170 176 209 182 181 180 174 175 170 172 164 146 162 136 189 175 177 159 156 152 175 253 139 149 201 239 243 222 217 219 219 217 219 223
237 231 231 227 197 205 176 170 180 168 153 166 189 174 160 172 151 174 167 151 154 130 116 93 205 188 174 167 145 168 164 178 336 277 143 125 264 254 204 221 221 221 222 226 229
225 230 215 231 210 198 179 182 177 166 109 207 170 181 174 164 150 168 174 158 127 129 162 160 203 160 154 158 149 201 168 170 169 145 8 100 290 248 230 236 232 236 235 235 233
232 228 216 225 232 203 184 184 176 169 112 188 148 206 185 165 107 160 174 155 151 173 134 166 164 161 164 191 138 190 206 161 134 135 213 183 268 260 235 236 219 234 234 236 237
238 233 219 220 216 202 186 177 164 165 187 154 159 150 168 166 152 190 170 162 155 156 137 202 150 143 165 185 149 211 153 160 135 133 132 224 212 257 148 258 239 239 235 235 234
238 237 221 215 223 178 174 165 167 143 190 171 150 140 152 159 158 178 192 237 148 120 93 183 192 164 188 139 163 138 89 53 53 87 258 195 183 235 184 204 236 238 235 235 234
254 244 220 214 218 185 173 167 146 196 151 171 166 158 168 160 131 155 172 220 182 126 167 91 205 298 154 107 93 168 126 80 219 221 233 233 186 252 239 231 218 247 255 249 243
267 241 226 217 210 178 164 163 174 170 177 156 147 157 171 135 125 171 170 189 214 125 126 150 216 167 188 168 153 176 174 155 184 186 221 216 229 239 221 248 249 252 255 273 244
268 232 209 210 214 172 157 184 187 168 157 147 121 157 122 171 127 165 186 191 193 185 165 148 216 345 241 148 154 194 206 165 102 49 51 226 290 298 258 264 258 240 243 254 257
267 258 204 209 190 163 166 194 143 157 125 138 157 179 171 179 148 180 180 199 194 204 171 199 162 174 173 128 34 191 156 160 18 132 254 281 284 239 241 229 230 239 230 238 233
246 239 207 203 171 172 181 183 142 165 144 156 144 175 182 173 183 183 189 194 197 187 196 145 116 206 129 206 162 148 165 80 125 157 174 222 259 218 211 234 225 225 223 216 213
228 214 201 176 161 190 183 150 145 167 158 120 108 93 181 178 161 184 186 195 188 163 164 178 115 143 193 167 171 190 176 173 195 200 143 157 270 310 259 278 252 238 222 215 208
235 204 188 188 163 181 180 175 146 165 171 145 133 141 156 173 179 190 183 191 176 176 169 172 245 92 27 347 239 206 189 143 97 76 205 167 258 349 315 313 235 220 206 203 203
202 173 246 177 192 175 173 187 128 174 167 102 115 107 146 178 212 188 164 172 183 185 168 138 118 166 191 211 109 167 167 162 142 176 167 239 226 285 268 266 206 153 178 184 197
226 227 213 175 177 183 179 175 144 155 179 137 148 167 157 185 178 182 152 128 176 178 160 144 163 148 241 190 176 172 185 179 187 221 191 244 213 218 229 222 214 218 188 184 192
196 235 121 190 172 174 187 185 174 165 156 192 176 169 174 162 186 131 114 110 161 44 166 7 106 118 17 20 188 184 180 182 210 225 228 209 266 229 243 233 203 204 203 212 220
208 236 130 185 168 174 188 181 192 164 83 185 145 136 180 173 152 157 170 160 157 166 177 116 120 93 253 330 71 356 206 194 216 218 223 226 232 193 217 209 210 221 232 243 257